Location: Mahannah Oil Field
(37.4664°N, 96.6003°W)
Time: 09:32:34
(UTC+00:00)

Courier 1B - Pass Details

Date: 23 January 2021
Orbit: 962 x 1209 km, 28.3° (Epoch: 02 March)

Event Time Altitude Azimuth Distance (km) Brightness Sun altitude
Rises 05:03:23 0° 219° (SW) 3,754 - -62.6°
Reaches altitude 10° 05:06:53 10° 203° (SSW) 2,764 - -63.1°
Maximum altitude 05:11:28 20° 159° (SSE) 2,107 - -63.8°
Drops below altitude 10° 05:15:57 10° 115° (ESE) 2,698 - -64.5°
Sets 05:19:19 0° 98° (E) 3,635 - -65.0°
